Weather History for Elkins, WV

Change the Weather History Date:

Saturday, May 10, 2014

  Actual Average Record
Temperature  
Mean Temperature 60 °F 56 °F  
Max Temperature 69 °F 69 °F 90 °F (1936)
Min Temperature 51 °F 44 °F 20 °F (1966)
Degree Days  
Heating Degree Days 5 9  
Month to date heating degree days 75 100  
Since 1 July heating degree days 5882 5663  
Cooling Degree Days 0 0  
Month to date cooling degree days 5 0  
Year to date cooling degree days 7 3  
Growing Degree Days 12 (Base 50)    
Moisture  
Dew Point 55 °F    
Average Humidity 77    
Maximum Humidity 93    
Minimum Humidity 60    
Precipitation  
Precipitation 0.13 in 0.17 in 1.16 in (2003)
Month to date precipitation 0.31 1.57  
Year to date precipitation 11.70 15.66  
Snow  
Snow 0.00 in - - ()
Month to date snowfall 0.0  
Since 1 September snowfall 92.3  
Snow Depth 0.00 in    
Sea Level Pressure  
Sea Level Pressure 30.03 in    
Wind  
Wind Speed 7 mph (SW)    
Max Wind Speed 16 mph    
Max Gust Speed 23 mph    
Visibility 10 miles    
Events Rain    
T = Trace of Precipitation, MM = Missing Value Source: NWS Daily Summary

Daily Weather History Graph

Daily Weather History Graph

Search for Another Location

Airport:

Trip Planner

Search our weather history database for the weather conditions in past years. The results will help you decide how hot, cold, wet, or windy it might be!

Date:

Astronomy

May. 10, 2014 Rise Set
Actual Time 6:11 AM EDT 8:20 PM EDT
Civil Twilight 5:42 AM EDT 8:50 PM EDT
Nautical Twilight 5:05 AM EDT 9:26 PM EDT
Astronomical Twilight 4:26 AM EDT 10:06 PM EDT
Moon 4:16 PM EDT (5/10) 3:41 AM EDT (5/10)
Length of Visible Light 15h 08m
Length of Day
14h 08m
Waxing Gibbous, 82% of the Moon is Illuminated
May 10
Waxing Gibbous
May 14
Full
May 21
Last Quarter
May 28
New
Jun 5
First Quarter

Hourly Weather History & Observations

Time (EDT) Temp. Dew Point Humidity Pressure Visibility Wind Dir Wind Speed Gust Speed Precip Events Conditions
12:51 AM 60.1 °F 57.9 °F 93% 30.02 in 8.0 mi Calm Calm - 0.04 in   Partly Cloudy
1:51 AM 64.9 °F 55.9 °F 73% 30.00 in 10.0 mi SW 5.8 mph - N/A   Mostly Cloudy
2:51 AM 64.0 °F 55.9 °F 75% 29.99 in 10.0 mi WSW 3.5 mph - N/A   Partly Cloudy
3:51 AM 66.0 °F 55.9 °F 70% 30.00 in 10.0 mi SSW 6.9 mph - N/A   Overcast
4:09 AM 66.0 °F 55.9 °F 70% 30.03 in 10.0 mi SSW 4.6 mph - N/A   Mostly Cloudy
4:51 AM 64.9 °F 55.0 °F 70% 30.01 in 10.0 mi SW 11.5 mph 19.6 mph N/A   Scattered Clouds
5:51 AM 64.0 °F 55.0 °F 73% 30.01 in 10.0 mi Variable 4.6 mph - N/A   Clear
6:51 AM 63.0 °F 55.9 °F 78% 30.04 in 10.0 mi Calm Calm - N/A   Mostly Cloudy
7:51 AM 66.0 °F 55.9 °F 70% 30.05 in 10.0 mi SSW 5.8 mph - N/A   Partly Cloudy
8:51 AM 66.0 °F 55.0 °F 68% 30.06 in 10.0 mi WSW 9.2 mph 19.6 mph N/A   Overcast
9:51 AM 66.0 °F 55.0 °F 68% 30.06 in 10.0 mi WSW 9.2 mph - N/A   Overcast
10:37 AM 66.0 °F 55.0 °F 68% 30.08 in 10.0 mi West 3.5 mph - N/A   Overcast
10:44 AM 66.0 °F 55.0 °F 68% 30.08 in 10.0 mi West 4.6 mph - N/A   Overcast
10:51 AM 66.2 °F 55.4 °F 68% 30.08 in 10.0 mi SW 6.9 mph - N/A   Overcast
11:51 AM 69.1 °F 55.0 °F 61% 30.05 in 10.0 mi SW 9.2 mph - N/A   Overcast
12:51 PM 69.1 °F 55.0 °F 61% 30.03 in 10.0 mi SW 5.8 mph - N/A   Scattered Clouds
1:51 PM 69.1 °F 55.0 °F 61% 30.01 in 10.0 mi West 5.8 mph - 0.00 in Rain Light Rain
2:51 PM 66.9 °F 57.0 °F 70% 30.02 in 10.0 mi WSW 8.1 mph - 0.01 in Rain Light Rain
3:51 PM 64.9 °F 54.0 °F 68% 30.02 in 10.0 mi WSW 8.1 mph - 0.00 in Rain Light Rain
4:51 PM 63.0 °F 54.0 °F 72% 30.02 in 10.0 mi SW 11.5 mph 19.6 mph 0.02 in Rain Light Rain
5:51 PM 64.0 °F 54.0 °F 70% 29.99 in 10.0 mi SW 5.8 mph - 0.00 in   Mostly Cloudy
6:51 PM 64.9 °F 50.0 °F 58% 30.01 in 10.0 mi WSW 10.4 mph - N/A   Partly Cloudy
7:51 PM 64.0 °F 52.0 °F 65% 30.02 in 10.0 mi WSW 10.4 mph 16.1 mph N/A   Mostly Cloudy
8:51 PM 60.1 °F 55.0 °F 83% 30.05 in 10.0 mi WSW 6.9 mph - 0.04 in Rain Light Rain
9:51 PM 57.9 °F 53.1 °F 84% 30.07 in 10.0 mi SSW 9.2 mph - 0.06 in Rain Light Rain
10:51 PM 55.0 °F 51.1 °F 86% 30.07 in 10.0 mi Calm Calm - 0.00 in   Partly Cloudy
11:51 PM 54.0 °F 51.1 °F 90% 30.08 in 10.0 mi Calm Calm - N/A   Clear